Private Wetterstation Sandau
Wetterdaten: Mittwoch, 05.09.2012
Datum Zeit Temp. A. Feuchte A. Luftdruck Regen Wind Richtung Richtung Taupunkt Windchill
05.09.2012 00:01 14,9 C 78 % 1019,9 hPa 0,0 l/m 0,0 km/h (0 Bft) W-NW 292 11,1 C 14,9 C
05.09.2012 00:01 14,9 C 78 % 1019,9 hPa 0,0 l/m 0,0 km/h (0 Bft) W-NW 292 11,1 C 14,9 C
05.09.2012 00:06 14,9 C 80 % 1019,9 hPa 0,0 l/m 0,0 km/h (0 Bft) W-NW 292 11,5 C 14,9 C
05.09.2012 00:06 14,9 C 80 % 1019,9 hPa 0,0 l/m 0,0 km/h (0 Bft) W-NW 292 11,5 C 14,9 C
05.09.2012 00:11 14,9 C 80 % 1019,8 hPa 0,0 l/m 0,0 km/h (0 Bft) W-NW 292 11,5 C 14,9 C
05.09.2012 00:11 14,9 C 80 % 1019,8 hPa 0,0 l/m 0,0 km/h (0 Bft) W-NW 292 11,5 C 14,9 C
05.09.2012 00:16 14,9 C 80 % 1019,8 hPa 0,0 l/m 0,0 km/h (0 Bft) W-NW 292 11,5 C 14,9 C
05.09.2012 00:16 14,9 C 80 % 1019,8 hPa 0,0 l/m 0,0 km/h (0 Bft) W-NW 292 11,5 C 14,9 C
05.09.2012 00:21 14,9 C 80 % 1019,9 hPa 0,0 l/m 0,0 km/h (0 Bft) W-NW 292 11,5 C 14,9 C
05.09.2012 00:21 14,9 C 80 % 1019,9 hPa 0,0 l/m 0,0 km/h (0 Bft) W-NW 292 11,5 C 14,9 C
05.09.2012 00:26 14,9 C 80 % 1019,9 hPa 0,0 l/m 0,0 km/h (0 Bft) W-NW 292 11,5 C 14,9 C
05.09.2012 00:26 14,9 C 80 % 1019,9 hPa 0,0 l/m 0,0 km/h (0 Bft) W-NW 292 11,5 C 14,9 C
05.09.2012 00:31 14,7 C 80 % 1019,7 hPa 0,0 l/m 0,0 km/h (0 Bft) W-NW 292 11,3 C 14,7 C
05.09.2012 00:31 14,7 C 80 % 1019,7 hPa 0,0 l/m 0,0 km/h (0 Bft) W-NW 292 11,3 C 14,7 C
05.09.2012 00:36 14,6 C 80 % 1019,7 hPa 0,0 l/m 0,0 km/h (0 Bft) W-NW 292 11,2 C 14,6 C
05.09.2012 00:36 14,6 C 80 % 1019,7 hPa 0,0 l/m 0,0 km/h (0 Bft) W-NW 292 11,2 C 14,6 C
05.09.2012 00:41 14,5 C 80 % 1019,7 hPa 0,0 l/m 0,0 km/h (0 Bft) W-NW 292 11,1 C 14,5 C
05.09.2012 00:41 14,5 C 80 % 1019,7 hPa 0,0 l/m 0,0 km/h (0 Bft) W-NW 292 11,1 C 14,5 C
05.09.2012 00:46 14,5 C 81 % 1019,7 hPa 0,0 l/m 0,0 km/h (0 Bft) W-NW 292 11,3 C 14,5 C
05.09.2012 00:46 14,5 C 81 % 1019,7 hPa 0,0 l/m 0,0 km/h (0 Bft) W-NW 292 11,3 C 14,5 C
05.09.2012 00:51 14,4 C 81 % 1019,8 hPa 0,0 l/m 0,0 km/h (0 Bft) W-NW 292 11,2 C 14,4 C
05.09.2012 00:51 14,4 C 81 % 1019,8 hPa 0,0 l/m 0,0 km/h (0 Bft) W-NW 292 11,2 C 14,4 C
05.09.2012 00:56 14,4 C 81 % 1019,8 hPa 0,0 l/m 0,0 km/h (0 Bft) W-NW 292 11,2 C 14,4 C
05.09.2012 00:56 14,4 C 81 % 1019,8 hPa 0,0 l/m 0,0 km/h (0 Bft) W-NW 292 11,2 C 14,4 C
05.09.2012 01:01 14,4 C 81 % 1019,9 hPa 0,0 l/m 1,8 km/h (1 Bft) W-NW 292 11,2 C 14,4 C
05.09.2012 01:01 14,4 C 81 % 1019,9 hPa 0,0 l/m 1,8 km/h (1 Bft) W-NW 292 11,2 C 14,4 C
05.09.2012 01:06 14,4 C 81 % 1019,9 hPa 0,0 l/m 0,0 km/h (0 Bft) W-NW 292 11,2 C 14,4 C
05.09.2012 01:06 14,4 C 81 % 1019,9 hPa 0,0 l/m 0,0 km/h (0 Bft) W-NW 292 11,2 C 14,4 C
05.09.2012 01:11 14,4 C 82 % 1020,0 hPa 0,0 l/m 0,0 km/h (0 Bft) W-NW 292 11,4 C 14,4 C
05.09.2012 01:11 14,4 C 82 % 1020,0 hPa 0,0 l/m 0,0 km/h (0 Bft) W-NW 292 11,4 C 14,4 C
05.09.2012 01:16 14,4 C 82 % 1019,8 hPa 0,0 l/m 0,0 km/h (0 Bft) W-NW 292 11,4 C 14,4 C
05.09.2012 01:16 14,4 C 82 % 1019,8 hPa 0,0 l/m 0,0 km/h (0 Bft) W-NW 292 11,4 C 14,4 C
05.09.2012 01:21 14,4 C 82 % 1020,0 hPa 0,0 l/m 0,0 km/h (0 Bft) W-NW 292 11,4 C 14,4 C
05.09.2012 01:21 14,4 C 82 % 1020,0 hPa 0,0 l/m 0,0 km/h (0 Bft) W-NW 292 11,4 C 14,4 C
05.09.2012 01:26 14,3 C 82 % 1019,7 hPa 0,0 l/m 0,0 km/h (0 Bft) W-NW 292 11,3 C 14,3 C
05.09.2012 01:26 14,3 C 82 % 1019,7 hPa 0,0 l/m 0,0 km/h (0 Bft) W-NW 292 11,3 C 14,3 C
05.09.2012 01:31 14,3 C 82 % 1019,7 hPa 0,0 l/m 0,0 km/h (0 Bft) W-NW 292 11,3 C 14,3 C
05.09.2012 01:31 14,3 C 82 % 1019,7 hPa 0,0 l/m 0,0 km/h (0 Bft) W-NW 292 11,3 C 14,3 C
05.09.2012 01:36 14,2 C 83 % 1019,7 hPa 0,0 l/m 0,0 km/h (0 Bft) W-NW 292 11,4 C 14,2 C
05.09.2012 01:36 14,2 C 83 % 1019,7 hPa 0,0 l/m 0,0 km/h (0 Bft) W-NW 292 11,4 C 14,2 C
05.09.2012 01:41 14,2 C 83 % 1019,6 hPa 0,0 l/m 0,0 km/h (0 Bft) W-NW 292 11,4 C 14,2 C
05.09.2012 01:41 14,2 C 83 % 1019,6 hPa 0,0 l/m 0,0 km/h (0 Bft) W-NW 292 11,4 C 14,2 C
05.09.2012 01:46 14,3 C 83 % 1019,6 hPa 0,0 l/m 2,2 km/h (1 Bft) W-NW 292 11,5 C 14,3 C
05.09.2012 01:46 14,3 C 83 % 1019,6 hPa 0,0 l/m 2,2 km/h (1 Bft) W-NW 292 11,5 C 14,3 C
05.09.2012 01:51 14,3 C 83 % 1019,7 hPa 0,0 l/m 2,2 km/h (1 Bft) W-NW 292 11,5 C 14,3 C
05.09.2012 01:51 14,3 C 83 % 1019,7 hPa 0,0 l/m 2,2 km/h (1 Bft) W-NW 292 11,5 C 14,3 C
05.09.2012 01:56 14,3 C 83 % 1019,7 hPa 0,0 l/m 2,2 km/h (1 Bft) W-NW 292 11,5 C 14,3 C
05.09.2012 01:56 14,3 C 83 % 1019,7 hPa 0,0 l/m 2,2 km/h (1 Bft) W-NW 292 11,5 C 14,3 C
05.09.2012 02:01 14,2 C 83 % 1019,6 hPa 0,0 l/m 2,5 km/h (1 Bft) W-NW 292 11,4 C 14,2 C
05.09.2012 02:01 14,2 C 83 % 1019,6 hPa 0,0 l/m 2,5 km/h (1 Bft) W-NW 292 11,4 C 14,2 C
05.09.2012 02:06 14,2 C 83 % 1019,7 hPa 0,0 l/m 1,1 km/h (1 Bft) W-NW 292 11,4 C 14,2 C
05.09.2012 02:06 14,2 C 83 % 1019,7 hPa 0,0 l/m 1,1 km/h (1 Bft) W-NW 292 11,4 C 14,2 C
05.09.2012 02:11 14,2 C 83 % 1019,6 hPa 0,0 l/m 1,8 km/h (1 Bft) W-NW 292 11,4 C 14,2 C
05.09.2012 02:11 14,2 C 83 % 1019,6 hPa 0,0 l/m 1,8 km/h (1 Bft) W-NW 292 11,4 C 14,2 C
05.09.2012 02:16 14,2 C 83 % 1019,6 hPa 0,0 l/m 2,5 km/h (1 Bft) W-NW 292 11,4 C 14,2 C
05.09.2012 02:16 14,2 C 83 % 1019,6 hPa 0,0 l/m 2,5 km/h (1 Bft) W-NW 292 11,4 C 14,2 C
05.09.2012 02:21 14,3 C 83 % 1019,6 hPa 0,0 l/m 2,2 km/h (1 Bft) W-NW 292 11,5 C 14,3 C
05.09.2012 02:21 14,3 C 83 % 1019,6 hPa 0,0 l/m 2,2 km/h (1 Bft) W-NW 292 11,5 C 14,3 C
05.09.2012 02:26 14,3 C 84 % 1019,7 hPa 0,0 l/m 0,0 km/h (0 Bft) W-NW 292 11,6 C 14,3 C
05.09.2012 02:26 14,3 C 84 % 1019,7 hPa 0,0 l/m 0,0 km/h (0 Bft) W-NW 292 11,6 C 14,3 C
05.09.2012 02:31 14,3 C 84 % 1019,7 hPa 0,0 l/m 2,2 km/h (1 Bft) W-NW 292 11,6 C 14,3 C
05.09.2012 02:31 14,3 C 84 % 1019,7 hPa 0,0 l/m 2,2 km/h (1 Bft) W-NW 292 11,6 C 14,3 C
05.09.2012 02:36 14,3 C 84 % 1019,7 hPa 0,0 l/m 0,0 km/h (0 Bft) W-NW 292 11,6 C 14,3 C
05.09.2012 02:36 14,3 C 84 % 1019,7 hPa 0,0 l/m 0,0 km/h (0 Bft) W-NW 292 11,6 C 14,3 C
05.09.2012 02:41 14,3 C 84 % 1019,7 hPa 0,0 l/m 0,0 km/h (0 Bft) W-NW 292 11,6 C 14,3 C
05.09.2012 02:41 14,3 C 84 % 1019,7 hPa 0,0 l/m 0,0 km/h (0 Bft) W-NW 292 11,6 C 14,3 C
05.09.2012 02:46 14,3 C 84 % 1019,6 hPa 0,0 l/m 2,2 km/h (1 Bft) W-NW 292 11,6 C 14,3 C
05.09.2012 02:46 14,3 C 84 % 1019,6 hPa 0,0 l/m 2,2 km/h (1 Bft) W-NW 292 11,6 C 14,3 C
05.09.2012 02:51 14,2 C 84 % 1019,6 hPa 0,0 l/m 0,0 km/h (0 Bft) W-NW 292 11,5 C 14,2 C
05.09.2012 02:51 14,2 C 84 % 1019,6 hPa 0,0 l/m 0,0 km/h (0 Bft) W-NW 292 11,5 C 14,2 C
05.09.2012 02:56 14,1 C 84 % 1019,5 hPa 0,0 l/m 0,0 km/h (0 Bft) W-NW 292 11,4 C 14,1 C
05.09.2012 02:56 14,1 C 84 % 1019,5 hPa 0,0 l/m 0,0 km/h (0 Bft) W-NW 292 11,4 C 14,1 C
05.09.2012 03:01 14,1 C 84 % 1019,4 hPa 0,0 l/m 0,0 km/h (0 Bft) W-NW 292 11,4 C 14,1 C
05.09.2012 03:01 14,1 C 84 % 1019,4 hPa 0,0 l/m 0,0 km/h (0 Bft) W-NW 292 11,4 C 14,1 C
05.09.2012 03:06 14,1 C 84 % 1019,6 hPa 0,0 l/m 0,0 km/h (0 Bft) W-NW 292 11,4 C 14,1 C
05.09.2012 03:06 14,1 C 84 % 1019,6 hPa 0,0 l/m 0,0 km/h (0 Bft) W-NW 292 11,4 C 14,1 C
05.09.2012 03:11 13,9 C 84 % 1019,4 hPa 0,0 l/m 0,0 km/h (0 Bft) W-NW 292 11,2 C 13,9 C
05.09.2012 03:11 13,9 C 84 % 1019,4 hPa 0,0 l/m 0,0 km/h (0 Bft) W-NW 292 11,2 C 13,9 C
05.09.2012 03:16 13,9 C 84 % 1019,5 hPa 0,0 l/m 0,0 km/h (0 Bft) W-NW 292 11,2 C 13,9 C
05.09.2012 03:16 13,9 C 84 % 1019,5 hPa 0,0 l/m 0,0 km/h (0 Bft) W-NW 292 11,2 C 13,9 C
05.09.2012 03:21 13,9 C 84 % 1019,5 hPa 0,0 l/m 0,0 km/h (0 Bft) W-NW 292 11,2 C 13,9 C
05.09.2012 03:21 13,9 C 84 % 1019,5 hPa 0,0 l/m 0,0 km/h (0 Bft) W-NW 292 11,2 C 13,9 C
05.09.2012 03:26 13,8 C 84 % 1019,5 hPa 0,0 l/m 0,0 km/h (0 Bft) W-NW 292 11,1 C 13,8 C
05.09.2012 03:26 13,8 C 84 % 1019,5 hPa 0,0 l/m 0,0 km/h (0 Bft) W-NW 292 11,1 C 13,8 C
05.09.2012 03:31 13,8 C 84 % 1019,5 hPa 0,0 l/m 0,0 km/h (0 Bft) W-NW 292 11,1 C 13,8 C
05.09.2012 03:31 13,8 C 84 % 1019,5 hPa 0,0 l/m 0,0 km/h (0 Bft) W-NW 292 11,1 C 13,8 C
05.09.2012 03:36 13,8 C 84 % 1019,5 hPa 0,0 l/m 1,1 km/h (1 Bft) W-NW 292 11,1 C 13,8 C
05.09.2012 03:36 13,8 C 84 % 1019,5 hPa 0,0 l/m 1,1 km/h (1 Bft) W-NW 292 11,1 C 13,8 C
05.09.2012 03:41 13,8 C 84 % 1019,5 hPa 0,0 l/m 2,5 km/h (1 Bft) W-NW 292 11,1 C 13,8 C
05.09.2012 03:41 13,8 C 84 % 1019,5 hPa 0,0 l/m 2,5 km/h (1 Bft) W-NW 292 11,1 C 13,8 C
05.09.2012 03:46 13,8 C 84 % 1019,5 hPa 0,0 l/m 0,0 km/h (0 Bft) W-NW 292 11,1 C 13,8 C
05.09.2012 03:46 13,8 C 84 % 1019,5 hPa 0,0 l/m 0,0 km/h (0 Bft) W-NW 292 11,1 C 13,8 C
05.09.2012 03:51 13,8 C 84 % 1019,5 hPa 0,0 l/m 2,9 km/h (1 Bft) W-NW 292 11,1 C 13,8 C
05.09.2012 03:51 13,8 C 84 % 1019,5 hPa 0,0 l/m 2,9 km/h (1 Bft) W-NW 292 11,1 C 13,8 C
05.09.2012 03:56 13,8 C 85 % 1019,5 hPa 0,0 l/m 0,0 km/h (0 Bft) W-NW 292 11,3 C 13,8 C
05.09.2012 03:56 13,8 C 85 % 1019,5 hPa 0,0 l/m 0,0 km/h (0 Bft) W-NW 292 11,3 C 13,8 C
05.09.2012 04:01 13,8 C 85 % 1019,4 hPa 0,0 l/m 1,8 km/h (1 Bft) W-NW 292 11,3 C 13,8 C
05.09.2012 04:01 13,8 C 85 % 1019,4 hPa 0,0 l/m 1,8 km/h (1 Bft) W-NW 292 11,3 C 13,8 C
05.09.2012 04:06 13,8 C 85 % 1019,4 hPa 0,0 l/m 1,4 km/h (1 Bft) W-NW 292 11,3 C 13,8 C
05.09.2012 04:11 13,8 C 85 % 1019,4 hPa 0,0 l/m 0,0 km/h (0 Bft) W-NW 292 11,3 C 13,8 C
05.09.2012 04:06 13,8 C 85 % 1019,4 hPa 0,0 l/m 1,4 km/h (1 Bft) W-NW 292 11,3 C 13,8 C
05.09.2012 04:11 13,8 C 85 % 1019,4 hPa 0,0 l/m 0,0 km/h (0 Bft) W-NW 292 11,3 C 13,8 C
05.09.2012 04:16 13,8 C 85 % 1019,4 hPa 0,0 l/m 0,0 km/h (0 Bft) W-NW 292 11,3 C 13,8 C
05.09.2012 04:16 13,8 C 85 % 1019,4 hPa 0,0 l/m 0,0 km/h (0 Bft) W-NW 292 11,3 C 13,8 C
05.09.2012 04:21 13,8 C 85 % 1019,3 hPa 0,0 l/m 2,9 km/h (1 Bft) W-NW 292 11,3 C 13,8 C
05.09.2012 04:21 13,8 C 85 % 1019,3 hPa 0,0 l/m 2,9 km/h (1 Bft) W-NW 292 11,3 C 13,8 C
05.09.2012 04:26 13,8 C 85 % 1019,3 hPa 0,0 l/m 1,8 km/h (1 Bft) W-NW 292 11,3 C 13,8 C
05.09.2012 04:26 13,8 C 85 % 1019,3 hPa 0,0 l/m 1,8 km/h (1 Bft) W-NW 292 11,3 C 13,8 C
05.09.2012 04:31 13,8 C 85 % 1019,2 hPa 0,0 l/m 0,0 km/h (0 Bft) W-NW 292 11,3 C 13,8 C
05.09.2012 04:31 13,8 C 85 % 1019,2 hPa 0,0 l/m 0,0 km/h (0 Bft) W-NW 292 11,3 C 13,8 C
05.09.2012 04:36 13,8 C 85 % 1019,1 hPa 0,0 l/m 3,6 km/h (1 Bft) W-NW 292 11,3 C 13,8 C
05.09.2012 04:36 13,8 C 85 % 1019,1 hPa 0,0 l/m 3,6 km/h (1 Bft) W-NW 292 11,3 C 13,8 C
05.09.2012 04:41 13,8 C 85 % 1019,2 hPa 0,0 l/m 0,0 km/h (0 Bft) W-NW 292 11,3 C 13,8 C
05.09.2012 04:41 13,8 C 85 % 1019,2 hPa 0,0 l/m 0,0 km/h (0 Bft) W-NW 292 11,3 C 13,8 C
05.09.2012 04:46 13,8 C 85 % 1019,2 hPa 0,0 l/m 0,0 km/h (0 Bft) W-NW 292 11,3 C 13,8 C
05.09.2012 04:46 13,8 C 85 % 1019,2 hPa 0,0 l/m 0,0 km/h (0 Bft) W-NW 292 11,3 C 13,8 C
05.09.2012 04:51 13,8 C 85 % 1019,2 hPa 0,0 l/m 0,0 km/h (0 Bft) W-NW 292 11,3 C 13,8 C
05.09.2012 04:51 13,8 C 85 % 1019,2 hPa 0,0 l/m 0,0 km/h (0 Bft) W-NW 292 11,3 C 13,8 C
05.09.2012 04:56 13,8 C 85 % 1019,3 hPa 0,0 l/m 0,0 km/h (0 Bft) W-NW 292 11,3 C 13,8 C
05.09.2012 04:56 13,8 C 85 % 1019,3 hPa 0,0 l/m 0,0 km/h (0 Bft) W-NW 292 11,3 C 13,8 C
05.09.2012 05:01 13,8 C 85 % 1019,2 hPa 0,0 l/m 0,0 km/h (0 Bft) W-NW 292 11,3 C 13,8 C
05.09.2012 05:01 13,8 C 85 % 1019,2 hPa 0,0 l/m 0,0 km/h (0 Bft) W-NW 292 11,3 C 13,8 C
05.09.2012 05:06 13,8 C 85 % 1019,2 hPa 0,0 l/m 0,0 km/h (0 Bft) W-NW 292 11,3 C 13,8 C
05.09.2012 05:06 13,8 C 85 % 1019,2 hPa 0,0 l/m 0,0 km/h (0 Bft) W-NW 292 11,3 C 13,8 C
05.09.2012 05:11 13,8 C 86 % 1019,3 hPa 0,0 l/m 2,5 km/h (1 Bft) W-NW 292 11,5 C 13,8 C
05.09.2012 05:11 13,8 C 86 % 1019,3 hPa 0,0 l/m 2,5 km/h (1 Bft) W-NW 292 11,5 C 13,8 C
05.09.2012 05:16 13,9 C 86 % 1019,2 hPa 0,0 l/m 0,0 km/h (0 Bft) W-NW 292 11,6 C 13,9 C
05.09.2012 05:16 13,9 C 86 % 1019,2 hPa 0,0 l/m 0,0 km/h (0 Bft) W-NW 292 11,6 C 13,9 C
05.09.2012 05:21 13,9 C 86 % 1019,2 hPa 0,0 l/m 1,1 km/h (1 Bft) W-NW 292 11,6 C 13,9 C
05.09.2012 05:21 13,9 C 86 % 1019,2 hPa 0,0 l/m 1,1 km/h (1 Bft) W-NW 292 11,6 C 13,9 C
05.09.2012 05:26 13,9 C 86 % 1019,3 hPa 0,0 l/m 0,0 km/h (0 Bft) W-NW 292 11,6 C 13,9 C
05.09.2012 05:26 13,9 C 86 % 1019,3 hPa 0,0 l/m 0,0 km/h (0 Bft) W-NW 292 11,6 C 13,9 C
05.09.2012 05:31 14,1 C 86 % 1019,3 hPa 0,0 l/m 1,1 km/h (1 Bft) W-NW 292 11,8 C 14,1 C
05.09.2012 05:31 14,1 C 86 % 1019,3 hPa 0,0 l/m 1,1 km/h (1 Bft) W-NW 292 11,8 C 14,1 C
05.09.2012 05:36 14,1 C 86 % 1019,3 hPa 0,0 l/m 0,0 km/h (0 Bft) W-NW 292 11,8 C 14,1 C
05.09.2012 05:36 14,1 C 86 % 1019,3 hPa 0,0 l/m 0,0 km/h (0 Bft) W-NW 292 11,8 C 14,1 C
05.09.2012 05:41 14,1 C 86 % 1019,3 hPa 0,0 l/m 2,9 km/h (1 Bft) W-NW 292 11,8 C 14,1 C
05.09.2012 05:41 14,1 C 86 % 1019,3 hPa 0,0 l/m 2,9 km/h (1 Bft) W-NW 292 11,8 C 14,1 C
05.09.2012 05:46 14,2 C 86 % 1019,3 hPa 0,0 l/m 2,9 km/h (1 Bft) W-NW 292 11,9 C 14,2 C
05.09.2012 05:46 14,2 C 86 % 1019,3 hPa 0,0 l/m 2,9 km/h (1 Bft) W-NW 292 11,9 C 14,2 C
05.09.2012 05:51 14,3 C 86 % 1019,3 hPa 0,0 l/m 2,2 km/h (1 Bft) W-NW 292 12,0 C 14,3 C
05.09.2012 05:51 14,3 C 86 % 1019,3 hPa 0,0 l/m 2,2 km/h (1 Bft) W-NW 292 12,0 C 14,3 C
05.09.2012 05:56 14,3 C 86 % 1019,3 hPa 0,0 l/m 0,0 km/h (0 Bft) W-NW 292 12,0 C 14,3 C
05.09.2012 05:56 14,3 C 86 % 1019,3 hPa 0,0 l/m 0,0 km/h (0 Bft) W-NW 292 12,0 C 14,3 C
05.09.2012 06:01 14,4 C 86 % 1019,4 hPa 0,0 l/m 0,0 km/h (0 Bft) W-NW 292 12,1 C 14,4 C
05.09.2012 06:06 14,5 C 86 % 1019,3 hPa 0,0 l/m 2,2 km/h (1 Bft) W-NW 292 12,2 C 14,5 C
05.09.2012 06:06 14,5 C 86 % 1019,3 hPa 0,0 l/m 2,2 km/h (1 Bft) W-NW 292 12,2 C 14,5 C
05.09.2012 06:11 14,6 C 87 % 1019,3 hPa 0,0 l/m 1,1 km/h (1 Bft) W-NW 292 12,5 C 14,6 C
05.09.2012 06:11 14,6 C 87 % 1019,3 hPa 0,0 l/m 1,1 km/h (1 Bft) W-NW 292 12,5 C 14,6 C
05.09.2012 06:16 14,6 C 87 % 1019,3 hPa 0,0 l/m 2,2 km/h (1 Bft) W-NW 292 12,5 C 14,6 C
05.09.2012 06:16 14,6 C 87 % 1019,3 hPa 0,0 l/m 2,2 km/h (1 Bft) W-NW 292 12,5 C 14,6 C
05.09.2012 06:21 14,7 C 87 % 1019,3 hPa 0,0 l/m 5,0 km/h (1 Bft) NW 315 12,6 C 14,7 C
05.09.2012 06:21 14,7 C 87 % 1019,3 hPa 0,0 l/m 5,0 km/h (1 Bft) NW 315 12,6 C 14,7 C
05.09.2012 06:26 14,8 C 87 % 1019,5 hPa 0,0 l/m 2,5 km/h (1 Bft) NW 315 12,7 C 14,8 C
05.09.2012 06:26 14,8 C 87 % 1019,5 hPa 0,0 l/m 2,5 km/h (1 Bft) NW 315 12,7 C 14,8 C
05.09.2012 06:31 14,9 C 87 % 1019,5 hPa 0,0 l/m 3,2 km/h (1 Bft) W-NW 292 12,8 C 14,9 C
05.09.2012 06:31 14,9 C 87 % 1019,5 hPa 0,0 l/m 3,2 km/h (1 Bft) W-NW 292 12,8 C 14,9 C
05.09.2012 06:36 14,9 C 87 % 1019,4 hPa 0,0 l/m 2,5 km/h (1 Bft) NW 315 12,8 C 14,9 C
05.09.2012 06:36 14,9 C 87 % 1019,4 hPa 0,0 l/m 2,5 km/h (1 Bft) NW 315 12,8 C 14,9 C
05.09.2012 06:41 14,9 C 87 % 1019,5 hPa 0,0 l/m 2,2 km/h (1 Bft) W-NW 292 12,8 C 14,9 C
05.09.2012 06:41 14,9 C 87 % 1019,5 hPa 0,0 l/m 2,2 km/h (1 Bft) W-NW 292 12,8 C 14,9 C
05.09.2012 06:46 14,9 C 87 % 1019,5 hPa 0,0 l/m 2,5 km/h (1 Bft) NW 315 12,8 C 14,9 C
05.09.2012 06:46 14,9 C 87 % 1019,5 hPa 0,0 l/m 2,5 km/h (1 Bft) NW 315 12,8 C 14,9 C
05.09.2012 06:51 14,9 C 87 % 1019,5 hPa 0,0 l/m 4,7 km/h (1 Bft) NW 315 12,8 C 14,9 C
05.09.2012 06:51 14,9 C 87 % 1019,5 hPa 0,0 l/m 4,7 km/h (1 Bft) NW 315 12,8 C 14,9 C
05.09.2012 06:56 14,9 C 87 % 1019,6 hPa 0,0 l/m 3,6 km/h (1 Bft) NW 315 12,8 C 14,9 C
05.09.2012 06:56 14,9 C 87 % 1019,6 hPa 0,0 l/m 3,6 km/h (1 Bft) NW 315 12,8 C 14,9 C
05.09.2012 07:01 15,1 C 88 % 1019,6 hPa 0,0 l/m 3,6 km/h (1 Bft) NW 315 13,1 C 15,1 C
05.09.2012 07:01 15,1 C 88 % 1019,6 hPa 0,0 l/m 3,6 km/h (1 Bft) NW 315 13,1 C 15,1 C
05.09.2012 07:06 15,3 C 88 % 1019,6 hPa 0,0 l/m 4,7 km/h (1 Bft) N-NW 337 13,3 C 15,3 C
05.09.2012 07:06 15,3 C 88 % 1019,6 hPa 0,0 l/m 4,7 km/h (1 Bft) N-NW 337 13,3 C 15,3 C
05.09.2012 07:11 15,3 C 88 % 1019,5 hPa 0,0 l/m 2,5 km/h (1 Bft) NW 315 13,3 C 15,3 C
05.09.2012 07:11 15,3 C 88 % 1019,5 hPa 0,0 l/m 2,5 km/h (1 Bft) NW 315 13,3 C 15,3 C
05.09.2012 07:16 15,4 C 88 % 1019,5 hPa 0,0 l/m 2,2 km/h (1 Bft) NW 315 13,4 C 15,4 C
05.09.2012 07:16 15,4 C 88 % 1019,5 hPa 0,0 l/m 2,2 km/h (1 Bft) NW 315 13,4 C 15,4 C
05.09.2012 07:21 15,4 C 88 % 1019,6 hPa 0,0 l/m 2,2 km/h (1 Bft) NW 315 13,4 C 15,4 C
05.09.2012 07:21 15,4 C 88 % 1019,6 hPa 0,0 l/m 2,2 km/h (1 Bft) NW 315 13,4 C 15,4 C
05.09.2012 07:26 15,4 C 88 % 1019,6 hPa 0,0 l/m 0,0 km/h (0 Bft) NW 315 13,4 C 15,4 C
05.09.2012 07:26 15,4 C 88 % 1019,6 hPa 0,0 l/m 0,0 km/h (0 Bft) NW 315 13,4 C 15,4 C
05.09.2012 07:31 15,5 C 88 % 1019,5 hPa 0,0 l/m 0,0 km/h (0 Bft) W-NW 292 13,5 C 15,5 C
05.09.2012 07:31 15,5 C 88 % 1019,5 hPa 0,0 l/m 0,0 km/h (0 Bft) W-NW 292 13,5 C 15,5 C
05.09.2012 07:36 15,6 C 88 % 1019,5 hPa 0,0 l/m 1,4 km/h (1 Bft) W-NW 292 13,6 C 15,6 C
05.09.2012 07:36 15,6 C 88 % 1019,5 hPa 0,0 l/m 1,4 km/h (1 Bft) W-NW 292 13,6 C 15,6 C
05.09.2012 07:41 15,7 C 88 % 1019,7 hPa 0,0 l/m 0,0 km/h (0 Bft) W-NW 292 13,7 C 15,7 C
05.09.2012 07:41 15,7 C 88 % 1019,7 hPa 0,0 l/m 0,0 km/h (0 Bft) W-NW 292 13,7 C 15,7 C
05.09.2012 07:46 15,8 C 88 % 1019,6 hPa 0,0 l/m 3,2 km/h (1 Bft) W 270 13,8 C 15,8 C
05.09.2012 07:46 15,8 C 88 % 1019,6 hPa 0,0 l/m 3,2 km/h (1 Bft) W 270 13,8 C 15,8 C
05.09.2012 07:51 15,8 C 88 % 1019,7 hPa 0,0 l/m 0,0 km/h (0 Bft) W-NW 292 13,8 C 15,8 C
05.09.2012 07:51 15,8 C 88 % 1019,7 hPa 0,0 l/m 0,0 km/h (0 Bft) W-NW 292 13,8 C 15,8 C
05.09.2012 07:56 15,8 C 88 % 1019,7 hPa 0,0 l/m 0,0 km/h (0 Bft) W-SW 247 13,8 C 15,8 C
05.09.2012 07:56 15,8 C 88 % 1019,7 hPa 0,0 l/m 0,0 km/h (0 Bft) W-SW 247 13,8 C 15,8 C
05.09.2012 08:01 15,9 C 88 % 1019,8 hPa 0,0 l/m 1,8 km/h (1 Bft) W-NW 292 13,9 C 15,9 C
05.09.2012 08:01 15,9 C 88 % 1019,8 hPa 0,0 l/m 1,8 km/h (1 Bft) W-NW 292 13,9 C 15,9 C
05.09.2012 08:06 15,9 C 88 % 1019,8 hPa 0,0 l/m 2,2 km/h (1 Bft) W 270 13,9 C 15,9 C
05.09.2012 08:06 15,9 C 88 % 1019,8 hPa 0,0 l/m 2,2 km/h (1 Bft) W 270 13,9 C 15,9 C
05.09.2012 08:11 15,9 C 88 % 1019,7 hPa 0,0 l/m 0,0 km/h (0 Bft) W 270 13,9 C 15,9 C
05.09.2012 08:11 15,9 C 88 % 1019,7 hPa 0,0 l/m 0,0 km/h (0 Bft) W 270 13,9 C 15,9 C
05.09.2012 08:16 15,9 C 88 % 1019,8 hPa 0,0 l/m 0,0 km/h (0 Bft) W 270 13,9 C 15,9 C
05.09.2012 08:16 15,9 C 88 % 1019,8 hPa 0,0 l/m 0,0 km/h (0 Bft) W 270 13,9 C 15,9 C
05.09.2012 08:21 15,9 C 88 % 1019,8 hPa 0,0 l/m 2,5 km/h (1 Bft) W-NW 292 13,9 C 15,9 C
05.09.2012 08:21 15,9 C 88 % 1019,8 hPa 0,0 l/m 2,5 km/h (1 Bft) W-NW 292 13,9 C 15,9 C
05.09.2012 08:26 16,0 C 88 % 1019,8 hPa 0,0 l/m 0,0 km/h (0 Bft) W 270 14,0 C 16,0 C
05.09.2012 08:26 16,0 C 88 % 1019,8 hPa 0,0 l/m 0,0 km/h (0 Bft) W 270 14,0 C 16,0 C
05.09.2012 08:31 16,1 C 88 % 1019,8 hPa 0,0 l/m 2,2 km/h (1 Bft) W 270 14,1 C 16,1 C
05.09.2012 08:31 16,1 C 88 % 1019,8 hPa 0,0 l/m 2,2 km/h (1 Bft) W 270 14,1 C 16,1 C
05.09.2012 08:36 16,1 C 87 % 1019,8 hPa 0,0 l/m 4,7 km/h (1 Bft) SW 225 13,9 C 16,1 C
05.09.2012 08:36 16,1 C 87 % 1019,8 hPa 0,0 l/m 4,7 km/h (1 Bft) SW 225 13,9 C 16,1 C
05.09.2012 08:41 16,2 C 87 % 1019,9 hPa 0,0 l/m 1,4 km/h (1 Bft) W-NW 292 14,0 C 16,2 C
05.09.2012 08:41 16,2 C 87 % 1019,9 hPa 0,0 l/m 1,4 km/h (1 Bft) W-NW 292 14,0 C 16,2 C
05.09.2012 08:46 16,3 C 87 % 1019,9 hPa 0,0 l/m 2,2 km/h (1 Bft) W-NW 292 14,1 C 16,3 C
05.09.2012 08:46 16,3 C 87 % 1019,9 hPa 0,0 l/m 2,2 km/h (1 Bft) W-NW 292 14,1 C 16,3 C
05.09.2012 08:51 16,4 C 87 % 1020,0 hPa 0,0 l/m 4,7 km/h (1 Bft) W-NW 292 14,2 C 16,4 C
05.09.2012 08:51 16,4 C 87 % 1020,0 hPa 0,0 l/m 4,7 km/h (1 Bft) W-NW 292 14,2 C 16,4 C
05.09.2012 08:56 16,4 C 87 % 1020,1 hPa 0,0 l/m 5,4 km/h (1 Bft) NW 315 14,2 C 16,4 C
05.09.2012 08:56 16,4 C 87 % 1020,1 hPa 0,0 l/m 5,4 km/h (1 Bft) NW 315 14,2 C 16,4 C
05.09.2012 09:01 16,5 C 86 % 1020,1 hPa 0,0 l/m 1,8 km/h (1 Bft) W-NW 292 14,1 C 16,5 C
05.09.2012 09:01 16,5 C 86 % 1020,1 hPa 0,0 l/m 1,8 km/h (1 Bft) W-NW 292 14,1 C 16,5 C
05.09.2012 09:06 16,8 C 86 % 1020,1 hPa 0,0 l/m 0,0 km/h (0 Bft) W-NW 292 14,4 C 16,8 C
05.09.2012 09:06 16,8 C 86 % 1020,1 hPa 0,0 l/m 0,0 km/h (0 Bft) W-NW 292 14,4 C 16,8 C
05.09.2012 09:11 16,9 C 85 % 1020,2 hPa 0,0 l/m 5,0 km/h (1 Bft) NW 315 14,4 C 16,9 C
05.09.2012 09:11 16,9 C 85 % 1020,2 hPa 0,0 l/m 5,0 km/h (1 Bft) NW 315 14,4 C 16,9 C
05.09.2012 09:16 17,2 C 85 % 1020,3 hPa 0,0 l/m 1,4 km/h (1 Bft) NW 315 14,7 C 17,2 C
05.09.2012 09:16 17,2 C 85 % 1020,3 hPa 0,0 l/m 1,4 km/h (1 Bft) NW 315 14,7 C 17,2 C
05.09.2012 09:21 17,4 C 84 % 1020,3 hPa 0,0 l/m 1,8 km/h (1 Bft) W-SW 247 14,7 C 17,4 C
05.09.2012 09:21 17,4 C 84 % 1020,3 hPa 0,0 l/m 1,8 km/h (1 Bft) W-SW 247 14,7 C 17,4 C
05.09.2012 09:26 17,4 C 81 % 1020,2 hPa 0,0 l/m 9,7 km/h (2 Bft) N-NW 337 14,1 C 17,4 C
05.09.2012 09:26 17,4 C 81 % 1020,2 hPa 0,0 l/m 9,7 km/h (2 Bft) N-NW 337 14,1 C 17,4 C
05.09.2012 09:31 16,9 C 79 % 1020,2 hPa 0,0 l/m 8,3 km/h (2 Bft) N-NO 22 13,2 C 16,9 C
05.09.2012 09:31 16,9 C 79 % 1020,2 hPa 0,0 l/m 8,3 km/h (2 Bft) N-NO 22 13,2 C 16,9 C
05.09.2012 09:36 16,6 C 79 % 1020,3 hPa 0,0 l/m 5,8 km/h (2 Bft) N-NO 22 12,9 C 16,6 C
05.09.2012 09:36 16,6 C 79 % 1020,3 hPa 0,0 l/m 5,8 km/h (2 Bft) N-NO 22 12,9 C 16,6 C
05.09.2012 09:41 16,5 C 80 % 1020,3 hPa 0,0 l/m 12,6 km/h (3 Bft) NO 45 13,0 C 16,5 C
05.09.2012 09:41 16,5 C 80 % 1020,3 hPa 0,0 l/m 12,6 km/h (3 Bft) NO 45 13,0 C 16,5 C
05.09.2012 09:46 16,5 C 79 % 1020,4 hPa 0,0 l/m 7,6 km/h (2 Bft) N-NO 22 12,8 C 16,5 C
05.09.2012 09:46 16,5 C 79 % 1020,4 hPa 0,0 l/m 7,6 km/h (2 Bft) N-NO 22 12,8 C 16,5 C
05.09.2012 09:51 16,5 C 78 % 1020,4 hPa 0,0 l/m 13,3 km/h (3 Bft) N-NW 337 12,6 C 16,5 C
05.09.2012 09:51 16,5 C 78 % 1020,4 hPa 0,0 l/m 13,3 km/h (3 Bft) N-NW 337 12,6 C 16,5 C
05.09.2012 09:56 16,5 C 77 % 1020,4 hPa 0,0 l/m 13,7 km/h (3 Bft) N 360 12,5 C 16,5 C
05.09.2012 09:56 16,5 C 77 % 1020,4 hPa 0,0 l/m 13,7 km/h (3 Bft) N 360 12,5 C 16,5 C
05.09.2012 10:01 16,5 C 77 % 1020,4 hPa 0,0 l/m 6,8 km/h (2 Bft) N 360 12,5 C 16,5 C
05.09.2012 10:01 16,5 C 77 % 1020,4 hPa 0,0 l/m 6,8 km/h (2 Bft) N 360 12,5 C 16,5 C
05.09.2012 10:06 16,6 C 77 % 1020,4 hPa 0,0 l/m 6,5 km/h (2 Bft) N-NW 337 12,5 C 16,6 C
05.09.2012 10:06 16,6 C 77 % 1020,4 hPa 0,0 l/m 6,5 km/h (2 Bft) N-NW 337 12,5 C 16,6 C
05.09.2012 10:11 16,7 C 76 % 1020,4 hPa 0,0 l/m 7,2 km/h (2 Bft) N-NO 22 12,4 C 16,7 C
05.09.2012 10:11 16,7 C 76 % 1020,4 hPa 0,0 l/m 7,2 km/h (2 Bft) N-NO 22 12,4 C 16,7 C
05.09.2012 10:16 16,9 C 76 % 1020,4 hPa 0,0 l/m 13,7 km/h (3 Bft) N-NW 337 12,6 C 16,9 C
05.09.2012 10:16 16,9 C 76 % 1020,4 hPa 0,0 l/m 13,7 km/h (3 Bft) N-NW 337 12,6 C 16,9 C
05.09.2012 10:21 16,9 C 74 % 1020,4 hPa 0,0 l/m 5,4 km/h (1 Bft) N-NO 22 12,2 C 16,9 C
05.09.2012 10:21 16,9 C 74 % 1020,4 hPa 0,0 l/m 5,4 km/h (1 Bft) N-NO 22 12,2 C 16,9 C
05.09.2012 10:26 17,1 C 73 % 1020,5 hPa 0,0 l/m 7,2 km/h (2 Bft) N-NW 337 12,2 C 17,1 C
05.09.2012 10:26 17,1 C 73 % 1020,5 hPa 0,0 l/m 7,2 km/h (2 Bft) N-NW 337 12,2 C 17,1 C
05.09.2012 10:31 17,3 C 73 % 1020,4 hPa 0,0 l/m 7,2 km/h (2 Bft) N 360 12,4 C 17,3 C
05.09.2012 10:31 17,3 C 73 % 1020,4 hPa 0,0 l/m 7,2 km/h (2 Bft) N 360 12,4 C 17,3 C
05.09.2012 10:36 17,3 C 70 % 1020,5 hPa 0,0 l/m 6,5 km/h (2 Bft) N-NO 22 11,8 C 17,3 C
05.09.2012 10:36 17,3 C 70 % 1020,5 hPa 0,0 l/m 6,5 km/h (2 Bft) N-NO 22 11,8 C 17,3 C
05.09.2012 10:41 17,2 C 71 % 1020,6 hPa 0,0 l/m 4,0 km/h (1 Bft) NO 45 11,9 C 17,2 C
05.09.2012 10:41 17,2 C 71 % 1020,6 hPa 0,0 l/m 4,0 km/h (1 Bft) NO 45 11,9 C 17,2 C
05.09.2012 10:46 17,3 C 72 % 1020,7 hPa 0,0 l/m 4,7 km/h (1 Bft) N-NO 22 12,2 C 17,3 C
05.09.2012 10:46 17,3 C 72 % 1020,7 hPa 0,0 l/m 4,7 km/h (1 Bft) N-NO 22 12,2 C 17,3 C
05.09.2012 10:51 17,3 C 72 % 1020,6 hPa 0,0 l/m 10,8 km/h (2 Bft) NW 315 12,2 C 17,3 C
05.09.2012 10:51 17,3 C 72 % 1020,6 hPa 0,0 l/m 10,8 km/h (2 Bft) NW 315 12,2 C 17,3 C
05.09.2012 10:56 17,3 C 72 % 1020,7 hPa 0,0 l/m 7,6 km/h (2 Bft) NO 45 12,2 C 17,3 C
05.09.2012 10:56 17,3 C 72 % 1020,7 hPa 0,0 l/m 7,6 km/h (2 Bft) NO 45 12,2 C 17,3 C
05.09.2012 11:01 17,2 C 70 % 1020,7 hPa 0,0 l/m 7,2 km/h (2 Bft) N-NO 22 11,7 C 17,2 C
05.09.2012 11:01 17,2 C 70 % 1020,7 hPa 0,0 l/m 7,2 km/h (2 Bft) N-NO 22 11,7 C 17,2 C
05.09.2012 11:06 17,2 C 71 % 1020,8 hPa 0,0 l/m 4,3 km/h (1 Bft) O-NO 67 11,9 C 17,2 C
05.09.2012 11:06 17,2 C 71 % 1020,8 hPa 0,0 l/m 4,3 km/h (1 Bft) O-NO 67 11,9 C 17,2 C
05.09.2012 11:11 17,4 C 71 % 1020,7 hPa 0,0 l/m 1,4 km/h (1 Bft) N-NO 22 12,1 C 17,4 C
05.09.2012 11:11 17,4 C 71 % 1020,7 hPa 0,0 l/m 1,4 km/h (1 Bft) N-NO 22 12,1 C 17,4 C
05.09.2012 11:16 17,6 C 71 % 1020,7 hPa 0,0 l/m 1,4 km/h (1 Bft) N-NO 22 12,3 C 17,6 C
05.09.2012 11:16 17,6 C 71 % 1020,7 hPa 0,0 l/m 1,4 km/h (1 Bft) N-NO 22 12,3 C 17,6 C
05.09.2012 11:21 17,6 C 69 % 1020,7 hPa 0,0 l/m 7,6 km/h (2 Bft) N-NO 22 11,8 C 17,6 C
05.09.2012 11:21 17,6 C 69 % 1020,7 hPa 0,0 l/m 7,6 km/h (2 Bft) N-NO 22 11,8 C 17,6 C
05.09.2012 11:26 17,6 C 69 % 1020,7 hPa 0,0 l/m 4,0 km/h (1 Bft) W-NW 292 11,8 C 17,6 C
05.09.2012 11:26 17,6 C 69 % 1020,7 hPa 0,0 l/m 4,0 km/h (1 Bft) W-NW 292 11,8 C 17,6 C
05.09.2012 11:31 17,6 C 69 % 1020,7 hPa 0,0 l/m 9,4 km/h (2 Bft) N 360 11,8 C 17,6 C
05.09.2012 11:31 17,6 C 69 % 1020,7 hPa 0,0 l/m 9,4 km/h (2 Bft) N 360 11,8 C 17,6 C
05.09.2012 11:36 17,4 C 68 % 1020,8 hPa 0,0 l/m 12,6 km/h (3 Bft) N-NO 22 11,4 C 17,4 C
05.09.2012 11:36 17,4 C 68 % 1020,8 hPa 0,0 l/m 12,6 km/h (3 Bft) N-NO 22 11,4 C 17,4 C
05.09.2012 11:41 17,3 C 69 % 1020,9 hPa 0,0 l/m 4,0 km/h (1 Bft) N-NO 22 11,6 C 17,3 C
05.09.2012 11:41 17,3 C 69 % 1020,9 hPa 0,0 l/m 4,0 km/h (1 Bft) N-NO 22 11,6 C 17,3 C
05.09.2012 11:46 17,3 C 70 % 1020,9 hPa 0,0 l/m 9,4 km/h (2 Bft) N-NO 22 11,8 C 17,3 C
05.09.2012 11:46 17,3 C 70 % 1020,9 hPa 0,0 l/m 9,4 km/h (2 Bft) N-NO 22 11,8 C 17,3 C
05.09.2012 11:51 17,6 C 68 % 1021,0 hPa 0,0 l/m 6,8 km/h (2 Bft) N-NW 337 11,6 C 17,6 C
05.09.2012 11:51 17,6 C 68 % 1021,0 hPa 0,0 l/m 6,8 km/h (2 Bft) N-NW 337 11,6 C 17,6 C
05.09.2012 11:56 18,1 C 66 % 1021,0 hPa 0,0 l/m 5,4 km/h (1 Bft) O-NO 67 11,6 C 18,1 C
05.09.2012 11:56 18,1 C 66 % 1021,0 hPa 0,0 l/m 5,4 km/h (1 Bft) O-NO 67 11,6 C 18,1 C
05.09.2012 12:01 18,4 C 62 % 1021,0 hPa 0,0 l/m 7,6 km/h (2 Bft) N-NO 22 11,0 C 18,4 C
05.09.2012 12:01 18,4 C 62 % 1021,0 hPa 0,0 l/m 7,6 km/h (2 Bft) N-NO 22 11,0 C 18,4 C
05.09.2012 12:06 18,2 C 64 % 1020,9 hPa 0,0 l/m 1,8 km/h (1 Bft) N 360 11,3 C 18,2 C
05.09.2012 12:06 18,2 C 64 % 1020,9 hPa 0,0 l/m 1,8 km/h (1 Bft) N 360 11,3 C 18,2 C
05.09.2012 12:11 18,6 C 64 % 1021,0 hPa 0,0 l/m 3,6 km/h (1 Bft) N-NO 22 11,7 C 18,6 C
05.09.2012 12:11 18,6 C 64 % 1021,0 hPa 0,0 l/m 3,6 km/h (1 Bft) N-NO 22 11,7 C 18,6 C
05.09.2012 12:16 19,0 C 62 % 1021,0 hPa 0,0 l/m 4,3 km/h (1 Bft) N 360 11,6 C 19,0 C
05.09.2012 12:16 19,0 C 62 % 1021,0 hPa 0,0 l/m 4,3 km/h (1 Bft) N 360 11,6 C 19,0 C
05.09.2012 12:21 19,4 C 60 % 1020,9 hPa 0,0 l/m 2,9 km/h (1 Bft) NW 315 11,4 C 19,4 C
05.09.2012 12:21 19,4 C 60 % 1020,9 hPa 0,0 l/m 2,9 km/h (1 Bft) NW 315 11,4 C 19,4 C
05.09.2012 12:26 19,6 C 57 % 1020,9 hPa 0,0 l/m 6,8 km/h (2 Bft) N-NW 337 10,8 C 19,6 C
05.09.2012 12:26 19,6 C 57 % 1020,9 hPa 0,0 l/m 6,8 km/h (2 Bft) N-NW 337 10,8 C 19,6 C
05.09.2012 12:31 19,8 C 56 % 1020,9 hPa 0,0 l/m 5,0 km/h (1 Bft) NW 315 10,8 C 19,8 C
05.09.2012 12:31 19,8 C 56 % 1020,9 hPa 0,0 l/m 5,0 km/h (1 Bft) NW 315 10,8 C 19,8 C
05.09.2012 12:36 19,6 C 56 % 1020,8 hPa 0,0 l/m 7,2 km/h (2 Bft) NO 45 10,6 C 19,6 C
05.09.2012 12:36 19,6 C 56 % 1020,8 hPa 0,0 l/m 7,2 km/h (2 Bft) NO 45 10,6 C 19,6 C
05.09.2012 12:41 19,6 C 57 % 1020,5 hPa 0,0 l/m 2,2 km/h (1 Bft) N 360 10,8 C 19,6 C
05.09.2012 12:41 19,6 C 57 % 1020,5 hPa 0,0 l/m 2,2 km/h (1 Bft) N 360 10,8 C 19,6 C
05.09.2012 12:46 19,8 C 57 % 1020,5 hPa 0,0 l/m 7,6 km/h (2 Bft) N-NO 22 11,0 C 19,8 C
05.09.2012 12:46 19,8 C 57 % 1020,5 hPa 0,0 l/m 7,6 km/h (2 Bft) N-NO 22 11,0 C 19,8 C
05.09.2012 12:51 20,0 C 57 % 1020,7 hPa 0,0 l/m 6,1 km/h (2 Bft) N-NW 337 11,2 C 20,0 C
05.09.2012 12:51 20,0 C 57 % 1020,7 hPa 0,0 l/m 6,1 km/h (2 Bft) N-NW 337 11,2 C 20,0 C
05.09.2012 12:56 20,4 C 56 % 1020,7 hPa 0,0 l/m 3,2 km/h (1 Bft) NO 45 11,3 C 20,4 C
05.09.2012 12:56 20,4 C 56 % 1020,7 hPa 0,0 l/m 3,2 km/h (1 Bft) NO 45 11,3 C 20,4 C
05.09.2012 13:01 20,6 C 55 % 1020,7 hPa 0,0 l/m 5,0 km/h (1 Bft) W-NW 292 11,2 C 20,6 C
05.09.2012 13:01 20,6 C 55 % 1020,7 hPa 0,0 l/m 5,0 km/h (1 Bft) W-NW 292 11,2 C 20,6 C
05.09.2012 13:06 20,6 C 52 % 1020,6 hPa 0,0 l/m 10,1 km/h (2 Bft) NO 45 10,4 C 20,6 C
05.09.2012 13:06 20,6 C 52 % 1020,6 hPa 0,0 l/m 10,1 km/h (2 Bft) NO 45 10,4 C 20,6 C
05.09.2012 13:11 20,3 C 53 % 1020,6 hPa 0,0 l/m 11,2 km/h (2 Bft) N-NW 337 10,4 C 20,3 C
05.09.2012 13:11 20,3 C 53 % 1020,6 hPa 0,0 l/m 11,2 km/h (2 Bft) N-NW 337 10,4 C 20,3 C
05.09.2012 13:16 20,1 C 54 % 1020,7 hPa 0,0 l/m 14,0 km/h (3 Bft) N-NO 22 10,5 C 20,1 C
05.09.2012 13:16 20,1 C 54 % 1020,7 hPa 0,0 l/m 14,0 km/h (3 Bft) N-NO 22 10,5 C 20,1 C
05.09.2012 13:21 19,8 C 56 % 1020,7 hPa 0,0 l/m 9,7 km/h (2 Bft) N 360 10,8 C 19,8 C
05.09.2012 13:21 19,8 C 56 % 1020,7 hPa 0,0 l/m 9,7 km/h (2 Bft) N 360 10,8 C 19,8 C
05.09.2012 13:26 19,5 C 55 % 1020,7 hPa 0,0 l/m 6,8 km/h (2 Bft) N-NW 337 10,2 C 19,5 C
05.09.2012 13:26 19,5 C 55 % 1020,7 hPa 0,0 l/m 6,8 km/h (2 Bft) N-NW 337 10,2 C 19,5 C
05.09.2012 13:31 19,6 C 55 % 1020,7 hPa 0,0 l/m 6,5 km/h (2 Bft) NW 315 10,3 C 19,6 C
05.09.2012 13:31 19,6 C 55 % 1020,7 hPa 0,0 l/m 6,5 km/h (2 Bft) NW 315 10,3 C 19,6 C
05.09.2012 13:36 20,1 C 55 % 1020,6 hPa 0,0 l/m 2,9 km/h (1 Bft) N-NO 22 10,8 C 20,1 C
05.09.2012 13:36 20,1 C 55 % 1020,6 hPa 0,0 l/m 2,9 km/h (1 Bft) N-NO 22 10,8 C 20,1 C
05.09.2012 13:41 20,6 C 53 % 1020,7 hPa 0,0 l/m 3,2 km/h (1 Bft) W-SW 247 10,7 C 20,6 C
05.09.2012 13:41 20,6 C 53 % 1020,7 hPa 0,0 l/m 3,2 km/h (1 Bft) W-SW 247 10,7 C 20,6 C
05.09.2012 13:46 20,7 C 53 % 1020,8 hPa 0,0 l/m 10,1 km/h (2 Bft) N-NW 337 10,8 C 20,7 C
05.09.2012 13:46 20,7 C 53 % 1020,8 hPa 0,0 l/m 10,1 km/h (2 Bft) N-NW 337 10,8 C 20,7 C
05.09.2012 13:51 20,2 C 52 % 1020,6 hPa 0,0 l/m 3,6 km/h (1 Bft) N 360 10,0 C 20,2 C
05.09.2012 13:51 20,2 C 52 % 1020,6 hPa 0,0 l/m 3,6 km/h (1 Bft) N 360 10,0 C 20,2 C
05.09.2012 13:56 20,3 C 53 % 1020,6 hPa 0,0 l/m 4,3 km/h (1 Bft) N-NW 337 10,4 C 20,3 C
05.09.2012 13:56 20,3 C 53 % 1020,6 hPa 0,0 l/m 4,3 km/h (1 Bft) N-NW 337 10,4 C 20,3 C
05.09.2012 14:01 20,4 C 51 % 1020,7 hPa 0,0 l/m 7,9 km/h (2 Bft) N 360 9,9 C 20,4 C
05.09.2012 14:01 20,4 C 51 % 1020,7 hPa 0,0 l/m 7,9 km/h (2 Bft) N 360 9,9 C 20,4 C
05.09.2012 14:06 20,8 C 49 % 1020,6 hPa 0,0 l/m 3,6 km/h (1 Bft) W 270 9,7 C 20,8 C
05.09.2012 14:06 20,8 C 49 % 1020,6 hPa 0,0 l/m 3,6 km/h (1 Bft) W 270 9,7 C 20,8 C
05.09.2012 14:11 20,9 C 51 % 1020,7 hPa 0,0 l/m 10,8 km/h (2 Bft) N 360 10,4 C 20,9 C
05.09.2012 14:11 20,9 C 51 % 1020,7 hPa 0,0 l/m 10,8 km/h (2 Bft) N 360 10,4 C 20,9 C
05.09.2012 14:16 20,8 C 52 % 1020,7 hPa 0,0 l/m 12,2 km/h (2 Bft) N-NW 337 10,6 C 20,8 C
05.09.2012 14:16 20,8 C 52 % 1020,7 hPa 0,0 l/m 12,2 km/h (2 Bft) N-NW 337 10,6 C 20,8 C
05.09.2012 14:21 20,3 C 50 % 1020,7 hPa 0,0 l/m 3,6 km/h (1 Bft) N 360 9,5 C 20,3 C
05.09.2012 14:21 20,3 C 50 % 1020,7 hPa 0,0 l/m 3,6 km/h (1 Bft) N 360 9,5 C 20,3 C
05.09.2012 14:26 20,3 C 51 % 1020,5 hPa 0,0 l/m 10,1 km/h (2 Bft) N 360 9,8 C 20,3 C
05.09.2012 14:26 20,3 C 51 % 1020,5 hPa 0,0 l/m 10,1 km/h (2 Bft) N 360 9,8 C 20,3 C
05.09.2012 14:31 20,5 C 49 % 1020,5 hPa 0,0 l/m 16,6 km/h (3 Bft) N 360 9,4 C 20,5 C
05.09.2012 14:31 20,5 C 49 % 1020,5 hPa 0,0 l/m 16,6 km/h (3 Bft) N 360 9,4 C 20,5 C
05.09.2012 14:36 20,8 C 49 % 1020,6 hPa 0,0 l/m 14,4 km/h (3 Bft) N-NW 337 9,7 C 20,8 C
05.09.2012 14:36 20,8 C 49 % 1020,6 hPa 0,0 l/m 14,4 km/h (3 Bft) N-NW 337 9,7 C 20,8 C
05.09.2012 14:41 21,3 C 48 % 1020,4 hPa 0,0 l/m 7,9 km/h (2 Bft) W 270 9,8 C 21,3 C
05.09.2012 14:41 21,3 C 48 % 1020,4 hPa 0,0 l/m 7,9 km/h (2 Bft) W 270 9,8 C 21,3 C
05.09.2012 14:46 21,4 C 47 % 1020,5 hPa 0,0 l/m 5,0 km/h (1 Bft) N-NW 337 9,6 C 21,4 C
05.09.2012 14:46 21,4 C 47 % 1020,5 hPa 0,0 l/m 5,0 km/h (1 Bft) N-NW 337 9,6 C 21,4 C
05.09.2012 14:51 20,9 C 49 % 1020,5 hPa 0,0 l/m 10,4 km/h (2 Bft) NO 45 9,8 C 20,9 C
05.09.2012 14:51 20,9 C 49 % 1020,5 hPa 0,0 l/m 10,4 km/h (2 Bft) NO 45 9,8 C 20,9 C
05.09.2012 14:56 20,5 C 49 % 1020,6 hPa 0,0 l/m 10,8 km/h (2 Bft) N-NW 337 9,4 C 20,5 C
05.09.2012 14:56 20,5 C 49 % 1020,6 hPa 0,0 l/m 10,8 km/h (2 Bft) N-NW 337 9,4 C 20,5 C
05.09.2012 15:01 20,5 C 50 % 1020,7 hPa 0,0 l/m 12,6 km/h (3 Bft) N 360 9,7 C 20,5 C
05.09.2012 15:01 20,5 C 50 % 1020,7 hPa 0,0 l/m 12,6 km/h (3 Bft) N 360 9,7 C 20,5 C
05.09.2012 15:06 20,4 C 49 % 1020,6 hPa 0,0 l/m 3,2 km/h (1 Bft) N 360 9,3 C 20,4 C
05.09.2012 15:06 20,4 C 49 % 1020,6 hPa 0,0 l/m 3,2 km/h (1 Bft) N 360 9,3 C 20,4 C
05.09.2012 15:11 20,6 C 49 % 1020,6 hPa 0,0 l/m 7,2 km/h (2 Bft) N 360 9,5 C 20,6 C
05.09.2012 15:11 20,6 C 49 % 1020,6 hPa 0,0 l/m 7,2 km/h (2 Bft) N 360 9,5 C 20,6 C
05.09.2012 15:16 20,7 C 49 % 1020,5 hPa 0,0 l/m 14,4 km/h (3 Bft) N-NW 337 9,6 C 20,7 C
05.09.2012 15:16 20,7 C 49 % 1020,5 hPa 0,0 l/m 14,4 km/h (3 Bft) N-NW 337 9,6 C 20,7 C
05.09.2012 15:21 20,6 C 48 % 1020,5 hPa 0,0 l/m 4,7 km/h (1 Bft) N-NO 22 9,2 C 20,6 C
05.09.2012 15:21 20,6 C 48 % 1020,5 hPa 0,0 l/m 4,7 km/h (1 Bft) N-NO 22 9,2 C 20,6 C
05.09.2012 15:26 20,6 C 50 % 1020,5 hPa 0,0 l/m 4,0 km/h (1 Bft) N 360 9,8 C 20,6 C
05.09.2012 15:26 20,6 C 50 % 1020,5 hPa 0,0 l/m 4,0 km/h (1 Bft) N 360 9,8 C 20,6 C
05.09.2012 15:31 20,9 C 50 % 1020,4 hPa 0,0 l/m 16,2 km/h (3 Bft) NO 45 10,1 C 20,9 C
05.09.2012 15:31 20,9 C 50 % 1020,4 hPa 0,0 l/m 16,2 km/h (3 Bft) NO 45 10,1 C 20,9 C
05.09.2012 15:36 21,3 C 48 % 1020,4 hPa 0,0 l/m 5,4 km/h (1 Bft) N-NO 22 9,8 C 21,3 C
05.09.2012 15:36 21,3 C 48 % 1020,4 hPa 0,0 l/m 5,4 km/h (1 Bft) N-NO 22 9,8 C 21,3 C
05.09.2012 15:41 21,1 C 47 % 1020,4 hPa 0,0 l/m 5,8 km/h (2 Bft) N 360 9,3 C 21,1 C
05.09.2012 15:41 21,1 C 47 % 1020,4 hPa 0,0 l/m 5,8 km/h (2 Bft) N 360 9,3 C 21,1 C
05.09.2012 15:46 21,2 C 48 % 1020,4 hPa 0,0 l/m 3,2 km/h (1 Bft) N-NW 337 9,7 C 21,2 C
05.09.2012 15:46 21,2 C 48 % 1020,4 hPa 0,0 l/m 3,2 km/h (1 Bft) N-NW 337 9,7 C 21,2 C
05.09.2012 15:51 21,2 C 47 % 1020,5 hPa 0,0 l/m 11,5 km/h (2 Bft) N-NW 337 9,4 C 21,2 C
05.09.2012 15:51 21,2 C 47 % 1020,5 hPa 0,0 l/m 11,5 km/h (2 Bft) N-NW 337 9,4 C 21,2 C
05.09.2012 15:56 20,9 C 48 % 1020,6 hPa 0,0 l/m 12,2 km/h (2 Bft) NO 45 9,5 C 20,9 C
05.09.2012 15:56 20,9 C 48 % 1020,6 hPa 0,0 l/m 12,2 km/h (2 Bft) NO 45 9,5 C 20,9 C
05.09.2012 16:01 20,6 C 48 % 1020,7 hPa 0,0 l/m 8,3 km/h (2 Bft) N 360 9,2 C 20,6 C
05.09.2012 16:01 20,6 C 48 % 1020,7 hPa 0,0 l/m 8,3 km/h (2 Bft) N 360 9,2 C 20,6 C
05.09.2012 16:06 20,4 C 49 % 1020,4 hPa 0,0 l/m 3,2 km/h (1 Bft) N-NO 22 9,3 C 20,4 C
05.09.2012 16:06 20,4 C 49 % 1020,4 hPa 0,0 l/m 3,2 km/h (1 Bft) N-NO 22 9,3 C 20,4 C
05.09.2012 16:11 20,4 C 49 % 1020,5 hPa 0,0 l/m 13,7 km/h (3 Bft) N-NO 22 9,3 C 20,4 C
05.09.2012 16:11 20,4 C 49 % 1020,5 hPa 0,0 l/m 13,7 km/h (3 Bft) N-NO 22 9,3 C 20,4 C
05.09.2012 16:16 20,2 C 49 % 1020,6 hPa 0,0 l/m 9,4 km/h (2 Bft) N 360 9,1 C 20,2 C
05.09.2012 16:16 20,2 C 49 % 1020,6 hPa 0,0 l/m 9,4 km/h (2 Bft) N 360 9,1 C 20,2 C
05.09.2012 16:21 20,4 C 48 % 1020,5 hPa 0,0 l/m 9,7 km/h (2 Bft) N 360 9,0 C 20,4 C
05.09.2012 16:21 20,4 C 48 % 1020,5 hPa 0,0 l/m 9,7 km/h (2 Bft) N 360 9,0 C 20,4 C
05.09.2012 16:26 20,3 C 49 % 1020,7 hPa 0,0 l/m 7,6 km/h (2 Bft) NW 315 9,2 C 20,3 C
05.09.2012 16:26 20,3 C 49 % 1020,7 hPa 0,0 l/m 7,6 km/h (2 Bft) NW 315 9,2 C 20,3 C
05.09.2012 16:31 20,1 C 49 % 1020,7 hPa 0,0 l/m 4,0 km/h (1 Bft) W-NW 292 9,0 C 20,1 C
05.09.2012 16:31 20,1 C 49 % 1020,7 hPa 0,0 l/m 4,0 km/h (1 Bft) W-NW 292 9,0 C 20,1 C
05.09.2012 16:36 20,3 C 49 % 1020,5 hPa 0,0 l/m 12,6 km/h (3 Bft) N-NW 337 9,2 C 20,3 C
05.09.2012 16:36 20,3 C 49 % 1020,5 hPa 0,0 l/m 12,6 km/h (3 Bft) N-NW 337 9,2 C 20,3 C
05.09.2012 16:41 20,4 C 48 % 1020,4 hPa 0,0 l/m 3,6 km/h (1 Bft) W-NW 292 9,0 C 20,4 C
05.09.2012 16:41 20,4 C 48 % 1020,4 hPa 0,0 l/m 3,6 km/h (1 Bft) W-NW 292 9,0 C 20,4 C
05.09.2012 16:46 20,5 C 48 % 1020,3 hPa 0,0 l/m 5,4 km/h (1 Bft) N-NW 337 9,1 C 20,5 C
05.09.2012 16:46 20,5 C 48 % 1020,3 hPa 0,0 l/m 5,4 km/h (1 Bft) N-NW 337 9,1 C 20,5 C
05.09.2012 16:51 20,9 C 46 % 1020,4 hPa 0,0 l/m 11,9 km/h (2 Bft) N 360 8,8 C 20,9 C
05.09.2012 16:51 20,9 C 46 % 1020,4 hPa 0,0 l/m 11,9 km/h (2 Bft) N 360 8,8 C 20,9 C
05.09.2012 16:56 21,1 C 46 % 1020,4 hPa 0,0 l/m 18,7 km/h (3 Bft) NW 315 9,0 C 21,1 C
05.09.2012 16:56 21,1 C 46 % 1020,4 hPa 0,0 l/m 18,7 km/h (3 Bft) NW 315 9,0 C 21,1 C
05.09.2012 17:01 21,4 C 46 % 1020,4 hPa 0,0 l/m 10,1 km/h (2 Bft) W-NW 292 9,3 C 21,4 C
05.09.2012 17:01 21,4 C 46 % 1020,4 hPa 0,0 l/m 10,1 km/h (2 Bft) W-NW 292 9,3 C 21,4 C
05.09.2012 17:06 21,4 C 45 % 1020,3 hPa 0,0 l/m 18,7 km/h (3 Bft) NW 315 9,0 C 21,4 C
05.09.2012 17:06 21,4 C 45 % 1020,3 hPa 0,0 l/m 18,7 km/h (3 Bft) NW 315 9,0 C 21,4 C
05.09.2012 17:11 21,1 C 45 % 1020,3 hPa 0,0 l/m 4,7 km/h (1 Bft) O-NO 67 8,7 C 21,1 C
05.09.2012 17:11 21,1 C 45 % 1020,3 hPa 0,0 l/m 4,7 km/h (1 Bft) O-NO 67 8,7 C 21,1 C
05.09.2012 17:16 20,8 C 46 % 1020,3 hPa 0,0 l/m 0,0 km/h (0 Bft) W-NW 292 8,8 C 20,8 C
05.09.2012 17:16 20,8 C 46 % 1020,3 hPa 0,0 l/m 0,0 km/h (0 Bft) W-NW 292 8,8 C 20,8 C
05.09.2012 17:21 20,4 C 45 % 1020,2 hPa 0,0 l/m 5,4 km/h (1 Bft) N-NO 22 8,1 C 20,4 C
05.09.2012 17:21 20,4 C 45 % 1020,2 hPa 0,0 l/m 5,4 km/h (1 Bft) N-NO 22 8,1 C 20,4 C
05.09.2012 17:26 20,3 C 47 % 1020,3 hPa 0,0 l/m 2,5 km/h (1 Bft) W 270 8,6 C 20,3 C
05.09.2012 17:26 20,3 C 47 % 1020,3 hPa 0,0 l/m 2,5 km/h (1 Bft) W 270 8,6 C 20,3 C
05.09.2012 17:31 20,4 C 47 % 1020,2 hPa 0,0 l/m 6,5 km/h (2 Bft) N 360 8,7 C 20,4 C
05.09.2012 17:31 20,4 C 47 % 1020,2 hPa 0,0 l/m 6,5 km/h (2 Bft) N 360 8,7 C 20,4 C
05.09.2012 17:36 20,7 C 46 % 1020,2 hPa 0,0 l/m 4,7 km/h (1 Bft) N-NO 22 8,7 C 20,7 C
05.09.2012 17:36 20,7 C 46 % 1020,2 hPa 0,0 l/m 4,7 km/h (1 Bft) N-NO 22 8,7 C 20,7 C
05.09.2012 17:41 20,7 C 46 % 1020,2 hPa 0,0 l/m 14,0 km/h (3 Bft) N-NO 22 8,7 C 20,7 C
05.09.2012 17:41 20,7 C 46 % 1020,2 hPa 0,0 l/m 14,0 km/h (3 Bft) N-NO 22 8,7 C 20,7 C
05.09.2012 17:46 20,4 C 47 % 1020,2 hPa 0,0 l/m 6,1 km/h (2 Bft) N 360 8,7 C 20,4 C
05.09.2012 17:46 20,4 C 47 % 1020,2 hPa 0,0 l/m 6,1 km/h (2 Bft) N 360 8,7 C 20,4 C
05.09.2012 17:51 20,3 C 48 % 1020,2 hPa 0,0 l/m 12,2 km/h (2 Bft) N-NW 337 8,9 C 20,3 C
05.09.2012 17:51 20,3 C 48 % 1020,2 hPa 0,0 l/m 12,2 km/h (2 Bft) N-NW 337 8,9 C 20,3 C
05.09.2012 17:56 20,2 C 48 % 1020,3 hPa 0,0 l/m 5,8 km/h (2 Bft) NW 315 8,8 C 20,2 C
05.09.2012 17:56 20,2 C 48 % 1020,3 hPa 0,0 l/m 5,8 km/h (2 Bft) NW 315 8,8 C 20,2 C
05.09.2012 18:01 19,9 C 47 % 1020,1 hPa 0,0 l/m 14,4 km/h (3 Bft) N-NW 337 8,3 C 19,9 C
05.09.2012 18:01 19,9 C 47 % 1020,1 hPa 0,0 l/m 14,4 km/h (3 Bft) N-NW 337 8,3 C 19,9 C
05.09.2012 18:06 19,9 C 48 % 1020,1 hPa 0,0 l/m 12,6 km/h (3 Bft) NW 315 8,6 C 19,9 C
05.09.2012 18:06 19,9 C 48 % 1020,1 hPa 0,0 l/m 12,6 km/h (3 Bft) NW 315 8,6 C 19,9 C
05.09.2012 18:11 20,0 C 48 % 1020,1 hPa 0,0 l/m 6,1 km/h (2 Bft) N-NW 337 8,7 C 20,0 C
05.09.2012 18:11 20,0 C 48 % 1020,1 hPa 0,0 l/m 6,1 km/h (2 Bft) N-NW 337 8,7 C 20,0 C
05.09.2012 18:16 19,9 C 48 % 1020,0 hPa 0,0 l/m 6,1 km/h (2 Bft) N 360 8,6 C 19,9 C
05.09.2012 18:16 19,9 C 48 % 1020,0 hPa 0,0 l/m 6,1 km/h (2 Bft) N 360 8,6 C 19,9 C
05.09.2012 18:21 19,9 C 49 % 1019,9 hPa 0,0 l/m 4,0 km/h (1 Bft) N 360 8,9 C 19,9 C
05.09.2012 18:21 19,9 C 49 % 1019,9 hPa 0,0 l/m 4,0 km/h (1 Bft) N 360 8,9 C 19,9 C
05.09.2012 18:26 19,8 C 49 % 1020,0 hPa 0,0 l/m 5,8 km/h (2 Bft) N 360 8,8 C 19,8 C
05.09.2012 18:26 19,8 C 49 % 1020,0 hPa 0,0 l/m 5,8 km/h (2 Bft) N 360 8,8 C 19,8 C
05.09.2012 18:31 19,8 C 48 % 1020,1 hPa 0,0 l/m 14,4 km/h (3 Bft) N 360 8,5 C 19,8 C
05.09.2012 18:31 19,8 C 48 % 1020,1 hPa 0,0 l/m 14,4 km/h (3 Bft) N 360 8,5 C 19,8 C
05.09.2012 18:36 19,6 C 48 % 1020,1 hPa 0,0 l/m 6,8 km/h (2 Bft) NW 315 8,3 C 19,6 C
05.09.2012 18:36 19,6 C 48 % 1020,1 hPa 0,0 l/m 6,8 km/h (2 Bft) NW 315 8,3 C 19,6 C
05.09.2012 18:41 19,6 C 48 % 1020,1 hPa 0,0 l/m 10,1 km/h (2 Bft) NW 315 8,3 C 19,6 C
05.09.2012 18:41 19,6 C 48 % 1020,1 hPa 0,0 l/m 10,1 km/h (2 Bft) NW 315 8,3 C 19,6 C
05.09.2012 18:46 19,5 C 49 % 1020,2 hPa 0,0 l/m 13,7 km/h (3 Bft) NW 315 8,5 C 19,5 C
05.09.2012 18:46 19,5 C 49 % 1020,2 hPa 0,0 l/m 13,7 km/h (3 Bft) NW 315 8,5 C 19,5 C
05.09.2012 18:51 19,4 C 50 % 1020,0 hPa 0,0 l/m 9,0 km/h (2 Bft) N-NW 337 8,7 C 19,4 C
05.09.2012 18:51 19,4 C 50 % 1020,0 hPa 0,0 l/m 9,0 km/h (2 Bft) N-NW 337 8,7 C 19,4 C
05.09.2012 18:56 19,3 C 51 % 1020,3 hPa 0,0 l/m 5,8 km/h (2 Bft) NW 315 8,9 C 19,3 C
05.09.2012 18:56 19,3 C 51 % 1020,3 hPa 0,0 l/m 5,8 km/h (2 Bft) NW 315 8,9 C 19,3 C
05.09.2012 19:01 19,2 C 51 % 1020,2 hPa 0,0 l/m 21,6 km/h (4 Bft) W-NW 292 8,8 C 19,2 C
05.09.2012 19:01 19,2 C 51 % 1020,2 hPa 0,0 l/m 21,6 km/h (4 Bft) W-NW 292 8,8 C 19,2 C
05.09.2012 19:06 19,0 C 52 % 1020,3 hPa 0,0 l/m 5,8 km/h (2 Bft) N-NW 337 8,9 C 19,0 C
05.09.2012 19:06 19,0 C 52 % 1020,3 hPa 0,0 l/m 5,8 km/h (2 Bft) N-NW 337 8,9 C 19,0 C
05.09.2012 19:11 18,9 C 52 % 1020,3 hPa 0,0 l/m 14,0 km/h (3 Bft) NW 315 8,8 C 18,9 C
05.09.2012 19:11 18,9 C 52 % 1020,3 hPa 0,0 l/m 14,0 km/h (3 Bft) NW 315 8,8 C 18,9 C
05.09.2012 19:16 18,8 C 52 % 1020,1 hPa 0,0 l/m 5,4 km/h (1 Bft) N 360 8,7 C 18,8 C
05.09.2012 19:16 18,8 C 52 % 1020,1 hPa 0,0 l/m 5,4 km/h (1 Bft) N 360 8,7 C 18,8 C
05.09.2012 19:21 18,7 C 53 % 1020,3 hPa 0,0 l/m 1,8 km/h (1 Bft) N-NW 337 8,9 C 18,7 C
05.09.2012 19:21 18,7 C 53 % 1020,3 hPa 0,0 l/m 1,8 km/h (1 Bft) N-NW 337 8,9 C 18,7 C
05.09.2012 19:26 18,6 C 53 % 1020,5 hPa 0,0 l/m 5,4 km/h (1 Bft) NW 315 8,8 C 18,6 C
05.09.2012 19:26 18,6 C 53 % 1020,5 hPa 0,0 l/m 5,4 km/h (1 Bft) NW 315 8,8 C 18,6 C
05.09.2012 19:31 18,5 C 53 % 1020,4 hPa 0,0 l/m 5,8 km/h (2 Bft) NW 315 8,7 C 18,5 C
05.09.2012 19:31 18,5 C 53 % 1020,4 hPa 0,0 l/m 5,8 km/h (2 Bft) NW 315 8,7 C 18,5 C
05.09.2012 19:36 18,4 C 53 % 1020,5 hPa 0,0 l/m 8,6 km/h (2 Bft) W-NW 292 8,6 C 18,4 C
05.09.2012 19:36 18,4 C 53 % 1020,5 hPa 0,0 l/m 8,6 km/h (2 Bft) W-NW 292 8,6 C 18,4 C
05.09.2012 19:41 18,4 C 54 % 1020,5 hPa 0,0 l/m 3,6 km/h (1 Bft) O-NO 67 8,9 C 18,4 C
05.09.2012 19:41 18,4 C 54 % 1020,5 hPa 0,0 l/m 3,6 km/h (1 Bft) O-NO 67 8,9 C 18,4 C
05.09.2012 19:46 18,3 C 55 % 1020,6 hPa 0,0 l/m 17,3 km/h (3 Bft) N-NW 337 9,1 C 18,3 C
05.09.2012 19:46 18,3 C 55 % 1020,6 hPa 0,0 l/m 17,3 km/h (3 Bft) N-NW 337 9,1 C 18,3 C
05.09.2012 19:51 18,2 C 56 % 1020,6 hPa 0,0 l/m 5,8 km/h (2 Bft) N-NO 22 9,3 C 18,2 C
05.09.2012 19:51 18,2 C 56 % 1020,6 hPa 0,0 l/m 5,8 km/h (2 Bft) N-NO 22 9,3 C 18,2 C
05.09.2012 19:56 18,1 C 56 % 1020,7 hPa 0,0 l/m 4,3 km/h (1 Bft) N-NO 22 9,2 C 18,1 C
05.09.2012 19:56 18,1 C 56 % 1020,7 hPa 0,0 l/m 4,3 km/h (1 Bft) N-NO 22 9,2 C 18,1 C
05.09.2012 20:01 18,1 C 56 % 1020,7 hPa 0,0 l/m 4,0 km/h (1 Bft) N-NW 337 9,2 C 18,1 C
05.09.2012 20:01 18,1 C 56 % 1020,7 hPa 0,0 l/m 4,0 km/h (1 Bft) N-NW 337 9,2 C 18,1 C
05.09.2012 20:06 17,9 C 56 % 1020,7 hPa 0,0 l/m 17,3 km/h (3 Bft) NW 315 9,0 C 17,9 C
05.09.2012 20:06 17,9 C 56 % 1020,7 hPa 0,0 l/m 17,3 km/h (3 Bft) NW 315 9,0 C 17,9 C
05.09.2012 20:11 17,9 C 57 % 1020,7 hPa 0,0 l/m 7,2 km/h (2 Bft) W 270 9,3 C 17,9 C
05.09.2012 20:11 17,9 C 57 % 1020,7 hPa 0,0 l/m 7,2 km/h (2 Bft) W 270 9,3 C 17,9 C
05.09.2012 20:16 17,8 C 57 % 1020,9 hPa 0,0 l/m 4,7 km/h (1 Bft) N-NO 22 9,2 C 17,8 C
05.09.2012 20:16 17,8 C 57 % 1020,9 hPa 0,0 l/m 4,7 km/h (1 Bft) N-NO 22 9,2 C 17,8 C
05.09.2012 20:21 17,6 C 57 % 1021,0 hPa 0,0 l/m 8,6 km/h (2 Bft) NW 315 9,0 C 17,6 C
05.09.2012 20:21 17,6 C 57 % 1021,0 hPa 0,0 l/m 8,6 km/h (2 Bft) NW 315 9,0 C 17,6 C
05.09.2012 20:26 17,6 C 58 % 1021,1 hPa 0,0 l/m 5,8 km/h (2 Bft) N-NW 337 9,2 C 17,6 C
05.09.2012 20:26 17,6 C 58 % 1021,1 hPa 0,0 l/m 5,8 km/h (2 Bft) N-NW 337 9,2 C 17,6 C
05.09.2012 20:31 17,4 C 58 % 1021,1 hPa 0,0 l/m 2,2 km/h (1 Bft) N 360 9,1 C 17,4 C
05.09.2012 20:31 17,4 C 58 % 1021,1 hPa 0,0 l/m 2,2 km/h (1 Bft) N 360 9,1 C 17,4 C
05.09.2012 20:36 17,3 C 59 % 1021,2 hPa 0,0 l/m 11,2 km/h (2 Bft) NW 315 9,2 C 17,3 C
05.09.2012 20:36 17,3 C 59 % 1021,2 hPa 0,0 l/m 11,2 km/h (2 Bft) NW 315 9,2 C 17,3 C
05.09.2012 20:41 17,2 C 59 % 1021,3 hPa 0,0 l/m 6,1 km/h (2 Bft) NW 315 9,1 C 17,2 C
05.09.2012 20:41 17,2 C 59 % 1021,3 hPa 0,0 l/m 6,1 km/h (2 Bft) NW 315 9,1 C 17,2 C
05.09.2012 20:46 17,1 C 60 % 1021,3 hPa 0,0 l/m 4,7 km/h (1 Bft) N-NW 337 9,3 C 17,1 C
05.09.2012 20:46 17,1 C 60 % 1021,3 hPa 0,0 l/m 4,7 km/h (1 Bft) N-NW 337 9,3 C 17,1 C
05.09.2012 20:51 17,1 C 60 % 1021,4 hPa 0,0 l/m 7,9 km/h (2 Bft) N 360 9,3 C 17,1 C
05.09.2012 20:51 17,1 C 60 % 1021,4 hPa 0,0 l/m 7,9 km/h (2 Bft) N 360 9,3 C 17,1 C
05.09.2012 20:56 17,1 C 60 % 1021,3 hPa 0,0 l/m 8,3 km/h (2 Bft) N-NW 337 9,3 C 17,1 C
05.09.2012 20:56 17,1 C 60 % 1021,3 hPa 0,0 l/m 8,3 km/h (2 Bft) N-NW 337 9,3 C 17,1 C
05.09.2012 21:01 17,0 C 60 % 1021,3 hPa 0,0 l/m 2,9 km/h (1 Bft) NW 315 9,2 C 17,0 C
05.09.2012 21:01 17,0 C 60 % 1021,3 hPa 0,0 l/m 2,9 km/h (1 Bft) NW 315 9,2 C 17,0 C
05.09.2012 21:06 16,9 C 60 % 1021,4 hPa 0,0 l/m 2,5 km/h (1 Bft) W-NW 292 9,1 C 16,9 C
05.09.2012 21:06 16,9 C 60 % 1021,4 hPa 0,0 l/m 2,5 km/h (1 Bft) W-NW 292 9,1 C 16,9 C
05.09.2012 21:11 16,9 C 60 % 1021,4 hPa 0,0 l/m 5,0 km/h (1 Bft) W-NW 292 9,1 C 16,9 C
05.09.2012 21:11 16,9 C 60 % 1021,4 hPa 0,0 l/m 5,0 km/h (1 Bft) W-NW 292 9,1 C 16,9 C
05.09.2012 21:16 16,9 C 60 % 1021,5 hPa 0,0 l/m 8,6 km/h (2 Bft) NW 315 9,1 C 16,9 C
05.09.2012 21:16 16,9 C 60 % 1021,5 hPa 0,0 l/m 8,6 km/h (2 Bft) NW 315 9,1 C 16,9 C
05.09.2012 21:21 16,9 C 61 % 1021,5 hPa 0,0 l/m 3,6 km/h (1 Bft) N-NW 337 9,3 C 16,9 C
05.09.2012 21:21 16,9 C 61 % 1021,5 hPa 0,0 l/m 3,6 km/h (1 Bft) N-NW 337 9,3 C 16,9 C
05.09.2012 21:26 16,8 C 60 % 1021,6 hPa 0,0 l/m 3,2 km/h (1 Bft) N 360 9,0 C 16,8 C
05.09.2012 21:26 16,8 C 60 % 1021,6 hPa 0,0 l/m 3,2 km/h (1 Bft) N 360 9,0 C 16,8 C
05.09.2012 21:31 16,8 C 61 % 1021,5 hPa 0,0 l/m 7,9 km/h (2 Bft) NW 315 9,2 C 16,8 C
05.09.2012 21:31 16,8 C 61 % 1021,5 hPa 0,0 l/m 7,9 km/h (2 Bft) NW 315 9,2 C 16,8 C
05.09.2012 21:36 16,8 C 60 % 1021,5 hPa 0,0 l/m 3,6 km/h (1 Bft) W-NW 292 9,0 C 16,8 C
05.09.2012 21:36 16,8 C 60 % 1021,5 hPa 0,0 l/m 3,6 km/h (1 Bft) W-NW 292 9,0 C 16,8 C
05.09.2012 21:41 16,7 C 61 % 1021,6 hPa 0,0 l/m 4,3 km/h (1 Bft) W-NW 292 9,1 C 16,7 C
05.09.2012 21:41 16,7 C 61 % 1021,6 hPa 0,0 l/m 4,3 km/h (1 Bft) W-NW 292 9,1 C 16,7 C
05.09.2012 21:46 16,6 C 60 % 1021,6 hPa 0,0 l/m 10,8 km/h (2 Bft) NW 315 8,8 C 16,6 C
05.09.2012 21:46 16,6 C 60 % 1021,6 hPa 0,0 l/m 10,8 km/h (2 Bft) NW 315 8,8 C 16,6 C
05.09.2012 21:51 16,5 C 60 % 1021,7 hPa 0,0 l/m 7,6 km/h (2 Bft) N-NW 337 8,7 C 16,5 C
05.09.2012 21:51 16,5 C 60 % 1021,7 hPa 0,0 l/m 7,6 km/h (2 Bft) N-NW 337 8,7 C 16,5 C
05.09.2012 21:56 16,5 C 59 % 1021,8 hPa 0,0 l/m 5,0 km/h (1 Bft) N-NW 337 8,5 C 16,5 C
05.09.2012 21:56 16,5 C 59 % 1021,8 hPa 0,0 l/m 5,0 km/h (1 Bft) N-NW 337 8,5 C 16,5 C
05.09.2012 22:01 16,4 C 59 % 1021,7 hPa 0,0 l/m 8,6 km/h (2 Bft) N 360 8,4 C 16,4 C
05.09.2012 22:01 16,4 C 59 % 1021,7 hPa 0,0 l/m 8,6 km/h (2 Bft) N 360 8,4 C 16,4 C
05.09.2012 22:06 16,4 C 59 % 1021,7 hPa 0,0 l/m 4,7 km/h (1 Bft) N-NW 337 8,4 C 16,4 C
05.09.2012 22:06 16,4 C 59 % 1021,7 hPa 0,0 l/m 4,7 km/h (1 Bft) N-NW 337 8,4 C 16,4 C
05.09.2012 22:11 16,3 C 59 % 1021,8 hPa 0,0 l/m 4,3 km/h (1 Bft) N-NO 22 8,3 C 16,3 C
05.09.2012 22:11 16,3 C 59 % 1021,8 hPa 0,0 l/m 4,3 km/h (1 Bft) N-NO 22 8,3 C 16,3 C
05.09.2012 22:16 16,2 C 60 % 1021,9 hPa 0,0 l/m 5,8 km/h (2 Bft) W-SW 247 8,4 C 16,2 C
05.09.2012 22:16 16,2 C 60 % 1021,9 hPa 0,0 l/m 5,8 km/h (2 Bft) W-SW 247 8,4 C 16,2 C
05.09.2012 22:21 16,2 C 60 % 1021,9 hPa 0,0 l/m 7,6 km/h (2 Bft) N-NO 22 8,4 C 16,2 C
05.09.2012 22:21 16,2 C 60 % 1021,9 hPa 0,0 l/m 7,6 km/h (2 Bft) N-NO 22 8,4 C 16,2 C
05.09.2012 22:26 16,1 C 60 % 1022,0 hPa 0,0 l/m 2,5 km/h (1 Bft) W 270 8,3 C 16,1 C
05.09.2012 22:26 16,1 C 60 % 1022,0 hPa 0,0 l/m 2,5 km/h (1 Bft) W 270 8,3 C 16,1 C
05.09.2012 22:31 16,1 C 61 % 1022,1 hPa 0,0 l/m 7,9 km/h (2 Bft) N-NO 22 8,6 C 16,1 C
05.09.2012 22:31 16,1 C 61 % 1022,1 hPa 0,0 l/m 7,9 km/h (2 Bft) N-NO 22 8,6 C 16,1 C
05.09.2012 22:36 16,1 C 61 % 1022,1 hPa 0,0 l/m 6,8 km/h (2 Bft) N-NW 337 8,6 C 16,1 C
05.09.2012 22:36 16,1 C 61 % 1022,1 hPa 0,0 l/m 6,8 km/h (2 Bft) N-NW 337 8,6 C 16,1 C
05.09.2012 22:41 16,0 C 61 % 1022,0 hPa 0,0 l/m 2,9 km/h (1 Bft) NW 315 8,5 C 16,0 C
05.09.2012 22:41 16,0 C 61 % 1022,0 hPa 0,0 l/m 2,9 km/h (1 Bft) NW 315 8,5 C 16,0 C
05.09.2012 22:46 15,9 C 61 % 1022,1 hPa 0,0 l/m 5,4 km/h (1 Bft) NW 315 8,4 C 15,9 C
05.09.2012 22:46 15,9 C 61 % 1022,1 hPa 0,0 l/m 5,4 km/h (1 Bft) NW 315 8,4 C 15,9 C
05.09.2012 22:51 15,9 C 62 % 1022,1 hPa 0,0 l/m 7,6 km/h (2 Bft) N 360 8,6 C 15,9 C
05.09.2012 22:51 15,9 C 62 % 1022,1 hPa 0,0 l/m 7,6 km/h (2 Bft) N 360 8,6 C 15,9 C
05.09.2012 22:56 15,9 C 62 % 1022,1 hPa 0,0 l/m 6,5 km/h (2 Bft) N-NW 337 8,6 C 15,9 C
05.09.2012 22:56 15,9 C 62 % 1022,1 hPa 0,0 l/m 6,5 km/h (2 Bft) N-NW 337 8,6 C 15,9 C
05.09.2012 23:01 15,9 C 63 % 1022,1 hPa 0,0 l/m 1,4 km/h (1 Bft) NW 315 8,9 C 15,9 C
05.09.2012 23:01 15,9 C 63 % 1022,1 hPa 0,0 l/m 1,4 km/h (1 Bft) NW 315 8,9 C 15,9 C
05.09.2012 23:06 15,8 C 63 % 1022,2 hPa 0,0 l/m 0,0 km/h (0 Bft) N 360 8,8 C 15,8 C
05.09.2012 23:06 15,8 C 63 % 1022,2 hPa 0,0 l/m 0,0 km/h (0 Bft) N 360 8,8 C 15,8 C
05.09.2012 23:11 15,8 C 63 % 1022,1 hPa 0,0 l/m 3,6 km/h (1 Bft) W-NW 292 8,8 C 15,8 C
05.09.2012 23:11 15,8 C 63 % 1022,1 hPa 0,0 l/m 3,6 km/h (1 Bft) W-NW 292 8,8 C 15,8 C
05.09.2012 23:16 15,8 C 64 % 1022,1 hPa 0,0 l/m 4,0 km/h (1 Bft) W-NW 292 9,0 C 15,8 C
05.09.2012 23:16 15,8 C 64 % 1022,1 hPa 0,0 l/m 4,0 km/h (1 Bft) W-NW 292 9,0 C 15,8 C
05.09.2012 23:21 15,7 C 64 % 1022,1 hPa 0,0 l/m 7,9 km/h (2 Bft) N-NW 337 8,9 C 15,7 C
05.09.2012 23:21 15,7 C 64 % 1022,1 hPa 0,0 l/m 7,9 km/h (2 Bft) N-NW 337 8,9 C 15,7 C
05.09.2012 23:26 15,6 C 64 % 1022,2 hPa 0,0 l/m 3,6 km/h (1 Bft) N-NW 337 8,8 C 15,6 C
05.09.2012 23:26 15,6 C 64 % 1022,2 hPa 0,0 l/m 3,6 km/h (1 Bft) N-NW 337 8,8 C 15,6 C
05.09.2012 23:31 15,6 C 64 % 1022,2 hPa 0,0 l/m 3,6 km/h (1 Bft) N-NW 337 8,8 C 15,6 C
05.09.2012 23:31 15,6 C 64 % 1022,2 hPa 0,0 l/m 3,6 km/h (1 Bft) N-NW 337 8,8 C 15,6 C
05.09.2012 23:36 15,5 C 64 % 1022,3 hPa 0,0 l/m 7,6 km/h (2 Bft) NW 315 8,7 C 15,5 C
05.09.2012 23:36 15,5 C 64 % 1022,3 hPa 0,0 l/m 7,6 km/h (2 Bft) NW 315 8,7 C 15,5 C
05.09.2012 23:41 15,4 C 65 % 1022,2 hPa 0,0 l/m 9,4 km/h (2 Bft) NW 315 8,9 C 15,4 C
05.09.2012 23:41 15,4 C 65 % 1022,2 hPa 0,0 l/m 9,4 km/h (2 Bft) NW 315 8,9 C 15,4 C
05.09.2012 23:46 15,4 C 65 % 1022,3 hPa 0,0 l/m 1,8 km/h (1 Bft) N-NW 337 8,9 C 15,4 C
05.09.2012 23:46 15,4 C 65 % 1022,3 hPa 0,0 l/m 1,8 km/h (1 Bft) N-NW 337 8,9 C 15,4 C
05.09.2012 23:51 15,3 C 65 % 1022,4 hPa 0,0 l/m 6,8 km/h (2 Bft) NW 315 8,8 C 15,3 C
05.09.2012 23:51 15,3 C 65 % 1022,4 hPa 0,0 l/m 6,8 km/h (2 Bft) NW 315 8,8 C 15,3 C
05.09.2012 23:56 15,3 C 65 % 1022,5 hPa 0,0 l/m 7,2 km/h (2 Bft) N-NW 337 8,8 C 15,3 C
05.09.2012 23:56 15,3 C 65 % 1022,5 hPa 0,0 l/m 7,2 km/h (2 Bft) N-NW 337 8,8 C 15,3 C
_ Min-Zeit 03:26 17:06 04:36 - 00:01 - - 17:21 03:26
Minimum _ 13,8 C 45 % 1019,1 hPa - 0,0 km/h (0 Bft) - - 8,1 C 13,8 C
_ Max-Zeit 14:46 07:01 23:56 00:01 19:01 - - 09:21 14:46
Maximum _ 21,4 C 88 % 1022,5 hPa 0,0 l/m 21,6 km/h
W-NW (4 Bft)
- - 14,7 C 21,4 C
Durchschnitt _ 17,1 C 68 % 1020,4 hPa #0,0 l/m 5,0 km/h (1 Bft) W-NW - 10,7 C 17,1 C
(c) by David Heller